Starlink 11333

operational
NORAD ID: 62273 Int'l Des: 2024-237 Owner: SPXS Country: US Constellation: starlink
LEOCIRCULAR

Starlink 11333について

説明を読み込み中...

リアルタイム位置

3D地球を読み込み中...

次回通過

高度履歴

Altitude vs Time

uPlot chart will show altitude changes over time

軌道要素

1 62273U 24237G 25258.42906800 .00483181 00000-0 35445-2 0 9997
2 62273 43.0002 33.4433 0005604 295.2528 64.7758 15.70902323 45489
Epoch: Sep 15, 2025 • Age: 14 hours

現在のステータス

高度 360.0 km
速度 7.70 km/s
衛星直下点 35.55°N, 156.82°E
打ち上げ日 Dec 8, 2024
運用期間 0.7 years
タイプ internet

技術仕様

分類 Payload
質量 960.00 kg
乾燥質量 910.00 kg
総質量 960.00 kg
長さ 0.30 m
直径 4.10 m
スパン 29.00 m
形状 Box + pan
製造者 SPXS
バスタイプ Starlink V2MD
フェーズステータス In Orbit
所有者/国 SPXS/US

大規模コンステレーション

Loading constellations...